Simultaneous Nadir Overpasses (SNOs) Predictions

Prediction of SNOs between GOES-15 and FY3D Satellite Orbit:

Table of predicted SNOs for the next 14.0 days since TLE Epoch: 11/6/2021
Index Date Time (GOES-15) GOES-15 Lat,Lon FY3D Lat,Lon Distance(km) Time Diff (sec)
1 11/06/2021 22:08:06 -0.14,-128.45 0.36,-126.17 259.70 80
2 11/08/2021 10:26:52 0.11,-128.46 0.77,-131.34 329.36 80
3 11/09/2021 10:10:34 0.12,-128.46 -0.26,-126.75 194.34 80
4 11/10/2021 22:29:30 -0.09,-128.45 -0.85,-131.97 400.80 80
5 11/11/2021 22:13:10 -0.10,-128.44 0.12,-127.36 122.92 80
6 11/13/2021 10:31:57 0.07,-128.45 1.01,-132.53 466.37 80
7 11/14/2021 10:15:38 0.08,-128.44 -0.02,-127.94 57.33 80
8 11/16/2021 22:15:35 -0.07,-128.43 -0.11,-128.55 14.08 80
9 11/19/2021 10:18:03 0.06,-128.42 0.21,-129.13 80.49 80
